Regional Weather Roundup
Issued by NWS Goodland, KS

Home | Current Version | Previous Version | Graphics & Text | Print | Product List | Glossary On
Versions: 1 2 3 4 5 6 7 8 9 10 11 12 13 14 15 16 17 18 19 20 21 22 23 24 25 26 27 28 29 30 31 32 33 34 35 36 37 38 39 40 41 42 43 44 45 46 47 48 49 50
000
ASUS43 KGLD 050008
RWRGLD

GOODLAND FORECAST AREA HOURLY WEATHER ROUNDUP
NATIONAL WEATHER SERVICE GOODLAND KS
600 PM MDT TUE AUG 04 2015

...OFFICIAL OBSERVATIONS...

CITY           SKY/WX    TMP DP  RH WIND       PRES   REMARKS
GOODLAND KS    MOSUNNY   79  64  60 NE14      29.98S
HILL CITY KS   CLOUDY    70  67  90 SE6       29.93F
IMPERIAL NEB   CLOUDY    73  61  65 CALM      29.97S
MCCOOK NEB     CLOUDY    65  63  93 CALM      29.94F
AKRON CO       PTSUNNY   78  53  41 E13       30.04S
BURLINGTON CO  SUNNY     81  55  40 NE14G21   30.02R
LIMON CO       MOSUNNY   78  56  46 E20G28    30.09R
$$

...UNOFFICIAL OBSERVATIONS...

CITY           SKY/WX    TMP DP  RH WIND       PRES   REMARKS
COLBY KS       SUNNY     73  68  83 NE12      29.98S
NORTON KS      SUNNY     64  61  88 E8        29.92F
SHARON SPRINGS   N/A     86  65  49 NE21        N/A
KIT CARSON CO    N/A     89  61  39 MISG        N/A
YUMA CO          N/A     77  60  55 E12         N/A
$$


USA.gov is the U.S. government's official web portal to all federal, state and local government web resources and services.